Weather History for Nagpur Sonegaon, India

Change the Weather History Date:

Wednesday, September 19, 2012

  Actual Average Record
Temperature  
Mean Temperature 82 °F -  
Max Temperature 90 °F 91 °F - ()
Min Temperature 74 °F 70 °F - ()
Cooling Degree Days 17    
Growing Degree Days 32 (Base 50)    
Moisture  
Dew Point 75 °F    
Average Humidity 82    
Maximum Humidity 94    
Minimum Humidity 51    
Precipitation  
Precipitation 0.02 in 0.14 in - ()
Sea Level Pressure  
Sea Level Pressure 29.73 in    
Wind  
Wind Speed 3 mph ()    
Max Wind Speed 9 mph    
Max Gust Speed -    
Visibility 2.4 miles    
Events Rain    
T = Trace of Precipitation, MM = Missing Value Source: Averaged Metar Reports

Daily Weather History Graph

Daily Weather History Graph

Search for Another Location

Airport:

Trip Planner

Search our weather history database for the weather conditions in past years. The results will help you decide how hot, cold, wet, or windy it might be!

Date:

Astronomy

Sep. 19, 2012 Rise Set
Actual Time 6:01 AM IST 6:12 PM IST
Civil Twilight 5:39 AM IST 6:35 PM IST
Nautical Twilight 5:13 AM IST 7:00 PM IST
Astronomical Twilight 4:47 AM IST 7:26 PM IST
Moon 9:04 AM IST (9/19) 8:37 PM IST (9/19)
Length of Visible Light 12h 55m
Length of Day
12h 10m
Waxing Crescent, 13% of the Moon is Illuminated
Sep 19
Waxing Crescent
Sep 23
First Quarter
Sep 30
Full
Oct 8
Last Quarter
Oct 15
New

Hourly Weather History & Observations

Time (IST) Temp. Heat Index Dew Point Humidity Pressure Visibility Wind Dir Wind Speed Gust Speed Precip Events Conditions
12:10 AM 77.0 °F - 73.4 °F 89% 29.77 in 3.1 mi SW 2.3 mph - N/A   Haze
1:10 AM 77.0 °F - 73.4 °F 89% 29.77 in 3.1 mi WSW 2.3 mph - N/A   Haze
2:10 AM 77.0 °F - 73.4 °F 89% 29.74 in 3.1 mi West 3.5 mph - N/A   Haze
2:30 AM 77 °F - 74 °F 89% 29.70 in 2 mi West 3.5 mph - -   Haze
3:10 AM 77.0 °F - 73.4 °F 89% 29.74 in 3.1 mi WNW 3.5 mph - N/A   Haze
4:10 AM 77.0 °F - 73.4 °F 89% 29.71 in 3.1 mi NW 3.5 mph - N/A   Haze
5:10 AM 77.0 °F - 73.4 °F 89% 29.74 in 3.1 mi WNW 2.3 mph - N/A   Haze
5:30 AM 76 °F - 74 °F 93% 29.71 in 2 mi Calm Calm - -   Haze
6:10 AM 75.2 °F - 73.4 °F 94% 29.74 in 3.1 mi Calm Calm - N/A   Haze
7:10 AM 78.8 °F - 75.2 °F 89% 29.77 in 2.5 mi NNW 3.5 mph - N/A   Haze
8:10 AM 80.6 °F 86.2 °F 75.2 °F 84% 29.77 in 2.5 mi NNW 5.8 mph - N/A   Haze
8:30 AM 80 °F - 74 °F 77% 29.74 in 2 mi NW 9.2 mph - -   Haze
11:10 AM 86.0 °F 95.1 °F 75.2 °F 70% 29.77 in 3.7 mi NNW 5.8 mph - N/A   Scattered Clouds
11:30 AM 88 °F - 72 °F 51% 29.71 in 2 mi NNW 6.9 mph - -   Scattered Clouds
12:10 PM 87.8 °F 95.6 °F 73.4 °F 62% 29.74 in 3.7 mi WNW 3.5 mph - N/A   Scattered Clouds
1:10 PM 89.6 °F 98.2 °F 73.4 °F 59% 29.74 in 3.7 mi WNW 3.5 mph - N/A   Partly Cloudy
2:10 PM 86.0 °F 95.1 °F 75.2 °F 70% 29.71 in 1.9 mi East 5.8 mph - N/A Rain Rain
2:30 PM 81 °F - 76 °F 82% 29.66 in 1 mi East 4.6 mph - - Rain Light Rain
3:10 PM 84.2 °F 92.3 °F 75.2 °F 74% 29.68 in 1.9 mi East 2.3 mph - N/A   Haze
4:10 PM 80.6 °F 86.2 °F 75.2 °F 84% 29.68 in 1.9 mi East 2.3 mph - N/A   Haze
5:10 PM 84.2 °F 92.3 °F 75.2 °F 74% 29.68 in 1.9 mi SSE 2.3 mph - N/A   Haze
5:30 PM 85 °F - 78 °F 73% 29.64 in 1 mi SE 2.3 mph - -   Haze
6:10 PM 84.2 °F 94.1 °F 77.0 °F 79% 29.68 in 1.9 mi Calm Calm - N/A   Haze
7:10 PM 82.4 °F 89.5 °F 75.2 °F 79% 29.71 in 1.9 mi Calm Calm - N/A   Haze
8:10 PM 82.4 °F 89.5 °F 75.2 °F 79% 29.74 in 3.1 mi Calm Calm - N/A   Haze
8:30 PM 79 °F - 77 °F 90% 29.73 in 2 mi Calm Calm - -   Haze
9:10 PM 78.8 °F - 77.0 °F 94% 29.77 in 3.1 mi Calm Calm - N/A   Haze
11:10 PM 78.8 °F - 77.0 °F 94% 29.77 in 2.5 mi Calm Calm - N/A   Haze
11:30 PM 78 °F - 76 °F 90% 29.73 in 1 mi Calm Calm - -   Haze